STARLINK-3079 (49433 NORAD) Tracking and Keplerian Element Data

This shows tracking and keplerian element data for the satellite.

Feedback or suggestion? Click here.




ElementValue
Catalog49433
NameSTARLINK-3079
Epoch Orbit1131
Epoch Day16.25001157
Epoch Year2022
RAAN177.7048
Inclination53.2153
Eccentricity0.0003077
Argument of Perigee10.3499
Mean Anonmoly284.7541
Mean Motion15.73179564
Decay Rate-0.00023941
L11 49433U 21104AB 22016.25001157 -.00023941 00000+0 -16673-3 0 9999
L22 49433 53.2153 177.7048 0003077 10.3499 284.7541 15.73179564 11316

Live tracking and technical data element details for STARLINK-3079 (NORAD 49433). STARLINK-3079 can be tracked NOW for your location showing map with azimuth and elevation plus other details from your city location.

Track the satellite on the map from your city or location and see movement details for azimuth, elevation, latitude, longitude, range, height, and movement on the map or in text.







IsCatalogInMostPopularTable: catalog: 49433, numindb: 8
Update: records affected: 1



GetName: 49433 STARLINK-3079

Hit Count: updated at: Thu, 20 Jan 2022 17:59:34 GMT